sat.trackr.live / text

‹ back to catalog

STARLINK-6047

NORAD 56460 · 2023-064N

PAYLOAD ACTIVE UNKNOWN

§ Identity

Operator
Country
US
Launch date
2023-05-10
Launch site
AFWTR
Launch vehicle
Mass (kg)
RCS (m²)

Purposes: comms

External: N2YO · Heavens-Above · Gunter

§ Orbital elements

Epoch: 2026-09-20T14:28:48.830880Z

Period
96.11 min
Inclination
70.0008°
Eccentricity
0.0003194
Mean motion
14.98331869 rev/d
Perigee alt
569.8 km
Apogee alt
574.3 km
Semi-major
6,950.2 km
B*
3.7287e-5
RAAN
12.9533°
Arg perigee
271.0756°
Mean anomaly
89.0037°
Rev number
18,444

§ Raw data

STARLINK-60471 56460U 23064N   26263.60334295  .00000352  00000+0  37287-4 0  99972 56460  70.0008  12.9533 0003194 271.0756  89.0037 14.98331869184446

JSON: /api/v1/satellites/56460 · /tle

For live sub-satellite position, see the globe view (requires WebGL).

§ Visibility from observer

Set your observer location to see the next 7 days of passes ≥ 10°. The values pass through the URL so the page stays shareable.

No JS? Fill the form by hand. The geolocation button needs JavaScript.